Regional Weather Roundup
Issued by NWS

Home | Current Version | Previous Version | Graphics & Text | Print | Product List | Glossary On
Versions: 1 2 3 4 5 6 7 8 9 10 11 12 13 14 15 16 17 18 19 20 21 22 23 24 25 26 27 28 29 30 31 32 33 34 35 36 37 38 39 40 41 42 43 44 45 46 47 48 49 50
000
ASUS43 KIND 301959
RWRIN

WEATHER ROUNDUP FOR INDIANA
NATIONAL WEATHER SERVICE INDIANAPOLIS IN
400 PM EDT THU JUL 30 2015

NOTE: "FAIR" INDICATES FEW OR NO CLOUDS BELOW 12,000 FEET WITH NO
SIGNIFICANT WEATHER AND/OR OBSTRUCTIONS TO VISIBILITY.

* - STATION DOES NOT REPORT WEATHER SUCH AS PRECIPITATION OR FOG.

+ - STATION NOT QUALITY CONTROLLED BY THE NATIONAL WEATHER SERVICE.
    USE DATA WITH CAUTION...ESPECIALLY DEWPOINT AND RELATIVE
    HUMIDITY OBSERVATIONS.

INZ001>003-010>013-019-020-302100-
NORTHWEST INDIANA

CITY           SKY/WX    TMP DP  RH WIND       PRES   REMARKS
GARY /AIRPORT/ MOSUNNY   88  55  33 NW7G21    30.05F
KNOX *+        SUNNY     82  54  36 N7        30.04F
MONTICELLO +   PTSUNNY   85  60  43 W9        30.06F
RENSSELAER +   SUNNY     84  54  34 W10G17    30.07S

$$

LMZ046-743>745-302100-
SOUTHERN LAKE MICHIGAN

STATION/POSITION TIME  TEMP    WIND        PRES    WAVE
                       AIR SEA DIR/SP/G            HT
                 (UTC) (F)     (DEG/KT/KT) (MB)    (FT)
BURNS HARBOR     1900   80      CALM  /  2 1018.3F
MICHIGAN CITY    1900   77     210/  6/  7   N/A
5NW MICH CITY    1900   76 74  230/  4/  6   N/A     1

$$

INZ004-005-014>016-021>024-302100-
NORTH CENTRAL INDIANA

CITY           SKY/WX    TMP DP  RH WIND       PRES   REMARKS
ELKHART        SUNNY     84  52  32 NW13G22   30.05F
GOSHEN         SUNNY     82  58  43 W16G24    30.04F
SOUTH BEND     SUNNY     85  54  34 NW16      30.05F
WARSAW +       MOSUNNY   82  55  39 NW12      30.05F

$$

INZ006>009-017-018-025>027-302100-
NORTHEAST INDIANA

CITY           SKY/WX    TMP DP  RH WIND       PRES   REMARKS
ANGOLA *+      SUNNY     84  57  39 NW14      30.03S
FORT WAYNE     MOSUNNY   85  55  35 W15G21    30.05S

$$

INZ028-029-035-036-043>045-051>053-302100-
WEST CENTRAL INDIANA

CITY           SKY/WX    TMP DP  RH WIND       PRES   REMARKS
CRAWFORDSVL +  SUNNY     81  51  34 NW14G21     N/A
GREENCASTLE +  SUNNY     82  48  30 NW9G18    30.11S
LAFAYETTE      SUNNY     84  58  40 NW13      30.07F
TERRE HAUTE    SUNNY     86  58  38 NW12      30.11S

$$

INZ030>032-037>040-046>048-054>057-064-065-302100-
CENTRAL INDIANA

CITY           SKY/WX    TMP DP  RH WIND       PRES   REMARKS
ANDERSON       SUNNY     84  48  28 NW12G17   30.09S
FRANKFORT +    SUNNY     85  60  43 W10       30.10F
GREENWOOD *+   MOSUNNY   84  52  32 NW12G18   30.09F
INDIANAPOLIS   MOSUNNY   85  57  38 NW15G22   30.08F
-EAGLE CREEK   MOSUNNY   84  60  44 NW12      30.08F
KOKOMO *+      SUNNY     86  55  35 NW12      30.06F
MT COMFORT *+  SUNNY     84  50  30 NW15G22   30.09S
SHELBYVILLE    SUNNY     86  60  41 NW13      30.08F

$$

INZ033-034-041-042-049-050-058-059-302100-
EAST CENTRAL INDIANA

CITY           SKY/WX    TMP DP  RH WIND       PRES   REMARKS
MUNCIE         SUNNY     83  57  41 NW10G22   30.07S

$$

INZ060-061-067>069-081>083-085>088-302100-
SOUTHWEST INDIANA

CITY           SKY/WX    TMP DP  RH WIND       PRES   REMARKS
EVANSVILLE     SUNNY     88  56  33 N10G21    30.12F
HUNTINGBURG *+ SUNNY     86  61  42 NW8       30.11F

$$

INZ062-063-066-070>080-084-089>092-302100-
SOUTH CENTRAL AND SOUTHEAST INDIANA

CITY           SKY/WX    TMP DP  RH WIND       PRES   REMARKS
BLOOMINGTON    SUNNY     85  58  39 VRB6      30.11S
MADISON *+     SUNNY     84  54  34 NW5       30.11F
SEYMOUR +      SUNNY     86  59  39 NW8       30.08F

$$




USA.gov is the U.S. government's official web portal to all federal, state and local government web resources and services.